Location: Flensburg
(54.6357°N, 9.5142°E)
Time: 22:47:28
(UTC+01:00)

ISS - Pass Details

Date: 12 November 2017
Orbit: 402 x 407 km, 51.6° (Epoch: 23 November)

Event Time Altitude Azimuth Distance (km) Brightness Sun altitude
Exits shadow 04:19:40 12° 105° (ESE) 1,332 -0.5 -29.7°
Drops below altitude 10° 04:19:59 10° 103° (ESE) 1,458 -0.3 -29.6°
Sets 04:22:05 0° 98° (E) 2,317 1.1 -29.3°
